BEIDOU-3 M11 (C25)

Last updated on Sat Aug 15 2026 00:03:26 GMT+0000 (Coordinated Universal Time)

1 43603U 18067B 26226.03566256 .00000008 00000+0 00000+0 0 9995 2 43603 54.1781 179.0429 0004917 17.8197 342.1525 1.86226919 54229
UTC large
Height (km)
Speed (km/s)
/
Latitude / Longitude
Inclination (degrees)
Orbital Period (minutes)
Azimuth
Elevation
Range (km)
Doppler Factor

Next 0 passes for location: London (51.5072 / 0.1276)

No passes found over London.
BEIDOU-3 M11 (C25)